Location: Keewatin
(47.4004°N, 93.0827°W)
Time: 04:11:17
(UTC+00:00)

KKS-1 - Pass Details

Date: 28 February 2020
Orbit: 637 x 650 km, 98.3° (Epoch: 04 April)

Event Time Altitude Azimuth Distance (km) Brightness Sun altitude
Rises 01:42:35 0° 20° (NNE) 2,951 ? -19.1°
Reaches altitude 10° 01:44:54 10° 27° (NNE) 2,036 ? -19.5°
Enters shadow 01:46:07 18° 34° (NE) 1,586 ? -19.7°
